Find Starlink 11743

NORAD ID: 64379 Int'l Des: 2025-127 Owner: SPXS Country: US Constellation: starlink operational
LEOCIRCULAR

实时位置

正在加载3D地球...

关于 Starlink 11743

正在加载描述...

即将过境

Passes for default location (London). Set your location on the main map for personalized predictions.

高度历史

Loading altitude history...

两行轨道根数

1 64379U 25127K 26106.68255280 .00163857 00000-0 12538-2 0 9998
2 64379 43.0006 215.8855 0001637 259.3749 100.6934 15.70870854 49476
Epoch: Apr 16, 2026 • Age: 5 hours

当前状态

高度 358.3 km
速度 7.70 km/s
星下点 34.06°N, 178.89°W
发射日期 Jun 13, 2025
运行时间 0.8 years
类型 internet

技术详情

分类 Payload
质量 960.00 kg
干质量 910.00 kg
总质量 960.00 kg
长度 0.30 m
直径 4.10 m
跨度 29.00 m
形状 Box + pan
制造商 SPXS
平台类型 Starlink V2MD
阶段状态 In Orbit
所有者/国家 SPXS/US

Most Searched